Location: Unspecified
(0.0000°N, 0.0000°E)
Time: 11:44:12
(UTC+00:00)

Explorer 11/Cluster Stage 4 - Pass Details

Date: 09 October 2020
Orbit: 467 x 1258 km, 28.8° (Epoch: 28 October)

Event Time Altitude Azimuth Distance (km) Brightness Sun altitude
Rises 04:29:58 0° 293° (WNW) 3,492 - -19.2°
Reaches altitude 10° 04:32:23 10° 289° (WNW) 2,665 - -18.6°
Exits shadow 04:35:09 28° 281° (W) 1,807 7.8 -17.9°
Maximum altitude 04:38:56 62° 210° (SSW) 1,211 7.3 -17.0°
Drops below altitude 10° 04:46:46 10° 130° (SE) 3,152 10.5 -15.0°
Sets 04:49:51 0° 127° (SE) 4,168 11.4 -14.3°
